| time (UTC) | temp F | wind direction | speed MPH | gust MPH | rain 1hr in | rain 24hr in | rain mn in | humidity % | barometer mb |
| 20260507030041 | 61 | 270 | 0.0 | 1.0 | 0.00 | 0.24 | 0.24 | 95 | 1108.9 |
| 20260507024539 | 61 | 270 | 0.0 | 0.0 | 0.00 | 0.24 | 0.24 | 95 | 1108.8 |
| 20260507023115 | 61 | 270 | 0.0 | 2.0 | 0.00 | 0.24 | 0.24 | 95 | 1108.8 |
| 20260507021531 | 61 | 270 | 0.0 | 1.0 | 0.00 | 0.24 | 0.24 | 95 | 1108.7 |
| 20260507020051 | 62 | 270 | 0.0 | 2.0 | 0.00 | 0.24 | 0.24 | 95 | 1108.4 |
| 20260507020038 | 63 | 259 | 1.0 | 6.0 | 0.00 | 0.24 | 0.24 | 95 | 1108.9 |
| 20260507011601 | 58 | 209 | 0.0 | 6.0 | 0.00 | 0.23 | 0.23 | 97 | 1106.1 |
| 20260507011552 | 58 | 62 | 0.0 | 1.0 | 0.00 | 0.23 | 0.04 | 97 | 1106.3 |
| 20260506110150 | 57 | 3 | 0.0 | 0.0 | 0.01 | 0.04 | 0.04 | 96 | 1106.0 |
| 20260506103032 | 57 | 67 | 1.0 | 3.0 | 0.00 | 0.03 | 0.03 | 96 | 1105.3 |
| 20260506101530 | 57 | 67 | 0.0 | 3.0 | 0.00 | 0.03 | 0.03 | 96 | 1105.5 |
| 20260506100114 | 56 | 67 | 0.0 | 2.0 | 0.00 | 0.03 | 0.03 | 96 | 1105.5 |
| 20260506094539 | 56 | 67 | 0.0 | 1.0 | 0.00 | 0.03 | 0.03 | 96 | 1105.6 |
| 20260506093040 | 56 | 67 | 0.0 | 0.0 | 0.00 | 0.03 | 0.03 | 96 | 1105.4 |
| 20260506091529 | 56 | 67 | 0.0 | 1.0 | 0.00 | 0.03 | 0.03 | 96 | 1105.3 |
| 20260506090029 | 56 | 67 | 0.0 | 2.0 | 0.00 | 0.03 | 0.03 | 95 | 1105.3 |
| 20260506084540 | 56 | 67 | 0.0 | 1.0 | 0.00 | 0.03 | 0.03 | 95 | 1105.3 |
| 20260506081551 | 57 | 67 | 0.0 | 2.0 | 0.00 | 0.03 | 0.03 | 95 | 1105.6 |
| 20260506073042 | 57 | 67 | 0.0 | 1.0 | 0.00 | 0.03 | 0.03 | 94 | 1105.8 |
| 20260506071538 | 57 | 67 | 0.0 | 2.0 | 0.00 | 0.03 | 0.03 | 94 | 1105.7 |
| 20260506061538 | 58 | 67 | 0.0 | 1.0 | 0.02 | 0.03 | 0.01 | 94 | 1106.9 |
| 20260506050141 | 57 | 67 | 0.0 | 1.0 | 0.01 | 0.01 | 0.01 | 92 | 1106.9 |
| 20260506044658 | 57 | 67 | 0.0 | 2.0 | 0.01 | 0.01 | 0.01 | 92 | 1107.2 |
| 20260506043031 | 57 | 58 | 0.0 | 3.0 | 0.01 | 0.01 | 0.00 | 92 | 1107.5 |
| 20260506041606 | 56 | 360 | 0.0 | 2.0 | 0.00 | 0.00 | 0.00 | 91 | 1107.7 |
| 20260506040042 | 56 | 360 | 0.0 | 1.0 | 0.00 | 0.00 | 0.00 | 91 | 1107.8 |
| 20260506034528 | 56 | 360 | 0.0 | 0.0 | 0.00 | 0.00 | 0.00 | 89 | 1107.7 |
| 20260506033050 | 0 | 0 | 0.0 | 0.0 | 0.00 | 0.00 | 0.00 | 100 |